Change the Weather History Date:

Sunday, November 13, 2011

  Actual Average Record
Temperature  
Mean Temperature 61 °F -  
Max Temperature 72 °F 72 °F 87 °F (2007)
Min Temperature 50 °F 55 °F 40 °F (2012)
Degree Days  
Heating Degree Days 4    
Growing Degree Days 11 (Base 50)    
Moisture  
Dew Point 54 °F    
Average Humidity 83    
Maximum Humidity 100    
Minimum Humidity 56    
Precipitation  
Precipitation 0.00 in - - ()
Sea Level Pressure  
Sea Level Pressure 29.90 in    
Wind  
Wind Speed 3 mph (WSW)    
Max Wind Speed 14 mph    
Max Gust Speed -    
Visibility 10 miles    
Events      
Averages and records for this station are not official NWS values.
T = Trace of Precipitation, MM = Missing Value Source: NWS Daily Summary

Daily Weather History Graph

Daily Weather History Graph

Search for Another Location

Airport or City:

Trip Planner

Search our weather history database for the weather conditions in past years. The results will help you decide how hot, cold, wet, or windy it might be!

Date:

Astronomy

Nov. 13, 2011 Rise Set
Actual Time 6:22 AM PST 4:50 PM PST
Civil Twilight 5:55 AM PST 5:16 PM PST
Nautical Twilight 5:25 AM PST 5:46 PM PST
Astronomical Twilight 4:56 AM PST 6:16 PM PST
Moon 7:08 PM PST (11/13) 8:53 AM PST (11/13)
Length of Visible Light 11h 20m
Length of Day
10h 28m
Waning Gibbous, 92% of the Moon is Illuminated
Nov 13
Waning Gibbous
Nov 18
Last Quarter
Nov 24
New
Dec 2
First Quarter
Dec 10
Full

Hourly Weather History & Observations

Time (PST) Temp. Dew Point Humidity Pressure Visibility Wind Dir Wind Speed Gust Speed Precip Events Conditions
12:55 AM 53.1 °F 52.7 °F 99% 29.85 in 10.0 mi Calm Calm - N/A   Clear
1:55 AM 54.7 °F 54.7 °F 100% 29.85 in 10.0 mi Calm Calm - N/A   Overcast
2:55 AM 54.7 °F 54.5 °F 99% 29.85 in 10.0 mi ENE 3.5 mph - N/A   Mostly Cloudy
3:55 AM 54.0 °F 52.7 °F 95% 29.85 in 10.0 mi Calm Calm - N/A   Clear
4:55 AM 51.4 °F 51.4 °F 100% 29.86 in 10.0 mi Calm Calm - N/A   Clear
5:55 AM 50.7 °F 50.7 °F 100% 29.87 in 10.0 mi Calm Calm - N/A   Scattered Clouds
6:55 AM 50.0 °F 50.0 °F 100% 29.89 in 10.0 mi West 3.5 mph - N/A   Scattered Clouds
7:55 AM 56.5 °F 54.0 °F 91% 29.90 in 10.0 mi Calm Calm - N/A   Mostly Cloudy
8:55 AM 61.3 °F 53.4 °F 75% 29.92 in 10.0 mi Calm Calm - N/A   Mostly Cloudy
9:55 AM 65.8 °F 53.6 °F 65% 29.92 in 10.0 mi Calm Calm - N/A   Mostly Cloudy
10:55 AM 69.3 °F 54.3 °F 59% 29.92 in 10.0 mi West 5.8 mph - N/A   Mostly Cloudy
11:55 AM 71.4 °F 55.8 °F 58% 29.89 in 10.0 mi SSW 6.9 mph - N/A   Mostly Cloudy
12:55 PM 70.0 °F 56.1 °F 61% 29.88 in 10.0 mi WSW 10.4 mph - N/A   Mostly Cloudy
1:55 PM 72.1 °F 55.8 °F 56% 29.88 in 10.0 mi SW 10.4 mph - N/A   Mostly Cloudy
2:55 PM 69.4 °F 54.5 °F 59% 29.88 in 10.0 mi SW 13.8 mph - N/A   Mostly Cloudy
3:55 PM 68.7 °F 54.0 °F 59% 29.88 in 10.0 mi WSW 11.5 mph - N/A   Clear
4:55 PM 64.9 °F 55.0 °F 70% 29.91 in 10.0 mi WNW 11.5 mph - N/A   Clear
5:55 PM 62.2 °F 55.9 °F 80% 29.93 in 10.0 mi WNW 6.9 mph - N/A   Clear
6:55 PM 59.4 °F 56.1 °F 89% 29.94 in 10.0 mi Calm Calm - N/A   Clear
7:55 PM 57.7 °F 55.4 °F 92% 29.95 in 10.0 mi Calm Calm - N/A   Clear
8:55 PM 56.1 °F 55.2 °F 97% 29.96 in 10.0 mi Calm Calm - N/A   Clear
9:55 PM 54.5 °F 54.3 °F 99% 29.97 in 10.0 mi Calm Calm - N/A   Clear
10:55 PM 53.2 °F 53.2 °F 100% 29.97 in 10.0 mi Calm Calm - N/A   Clear
11:55 PM 52.0 °F 52.0 °F 100% 29.97 in 10.0 mi Calm Calm - N/A   Clear